DECAYED

CZ-4 DEB, 26214 (Decayed)

Orbit data source: Space-Track

CZ-4 DEB, 26214 was space debris in LEO originally from a launch on Thu, 14 Oct 1999 UTC launched from the Taiyaun Space Center, China (TSC). Debris objects in space refer to the collection of defunct objects orbiting the Earth. Examples of debris include non-operational satellites, rocket bodies, and fragments generated from explosions, collisions, or faulty payload assembly.

Not visible in the next 10 days
Identifier
26214, 1999-057DC
Orbit
Decayed
Country
Flag of CNCN / PRC
Related business
Manufacturer
Unknown
Mission
Decayed spacecraft
Bus & Motor
Unknown
Mass
Unknown
Launch date (UTC)
1999-10-14 (27 years ago)
Launch vehicle
Unknown
Launch site
Taiyaun Space Center, China (TSC)
Object type
Payload
Rocket body
Debris
Shape & HBR
Unknown shape, 0.1 m
Radar Cross Section
Medium (>0.1 m² and <1 m²)

Expand to show TLE details & history
Last TLE update: 9 months ago

TLE from 9 months ago
0 CZ-4 DEB
1 26214U 99057DC  25253.24464065  .07858272  32320-5  17677-2 0  9997
2 26214  98.5849  79.2743 0012069 279.8651  80.1277 16.30016150378352
Epoch: 2025-09-10T05:52Z
TLE epoch observation values (Epoch: 2025-09-10T05:52:16.952Z)
Latitude
0.00003°
Longitude
1.67983°
Altitude
194.346 km
Speed
7.79 km/s
True Right ascension
05h 17m 05s
True Declination
0° 00' 00"
Sunlit
Object was in daylight at epoch
Visualization orbit readout
Latitude
Unknown
Longitude
Unknown
Altitude
Unknown
Speed
Unknown
Apparent Right ascension
Unknown
Apparent Declination
Unknown
Sunlit
N/A
Visualization observer readout
Local Sidereal Time
04:00:27
Azimuth
Unknown
Elevation
Unknown
Doppler factor
Unknown
Orbital elements
Apogee altitude
197.301 km
Perigee altitude
181.448 km
Semi-major axis
6,567.511 km
Eccentricity
0.00121
Inclination
98.5849°
RAAN
79.2743°
Arg. of periapsis
279.8651°
True anomaly
80.26399°
Mean anomaly
80.1277°
Eccentric anomaly
80.19584°
Mean motion
4.07795 °/min
Orbital period
88.28 mins
BSTAR
0.0017677
Loading maneuver chart data...
Computing Atmospheric mass density...
Loading historical data...
Loading historical data...
Loading historical data...
Loading historical data...
Loading historical data...
Loading historical data...
Loading historical data...

Documentation

Showing up to 5 results
|